[[{"header":{"parameterUnit":"m.s-1","parameterCategory":1,"la1":30.2991,"la2":30.254,"lo1":-89.0895,"lo2":-89.0444,"dy":0.0017,"dx":0.0017,"nx":28,"ny":28,"refTime":"2024-03-31T03:00:00:Z","depth":0,"parameterNumber":2,"parameterNumberName":"U-component_of_WINDS"},"data":[0,0,0,0,0,0,0,0,0,0,0,0,0,0,0,0,0,0,0,0,0,0,0,0,0,0,0,0,0,0,0,0,0,0,0,0,0,0,0,0,0,0,0,0,0,0,0,0,0,0,0,0,0,0,0,0,0,0,-2.9424,-2.9425,0,-2.9467,-2.9468,-2.9468,-2.9422,-2.942,-2.9419,-2.9417,-2.946,-2.9462,-2.9465,0,0,0,0,0,0,0,0,0,0,0,0,0,-2.93,-2.9303,-2.9424,-2.9425,-2.9425,-2.9467,-2.9468,-2.9468,-2.9422,-2.942,-2.9418,-2.9416,-2.9459,-2.9462,-2.9465,0,0,0,0,0,0,0,0,0,0,0,0,0,-2.935,-2.9303,-2.9424,-2.9407,-2.9406,-2.9467,-2.9468,-2.9469,-2.9423,-2.942,-2.9418,-2.9415,-2.9458,-2.9462,-2.9466,-2.9545,0,0,-2.9478,-2.948,0,0,0,0,0,0,0,0,-2.9347,-2.9354,-2.9409,-2.9409,-2.9408,-2.9437,-2.944,-2.9494,-2.9424,-2.9417,-2.9417,-2.9414,-2.9454,-2.9458,-2.9472,-2.9547,-2.9548,-2.9479,-2.9481,-2.9483,-2.9484,0,0,0,0,0,0,0,-2.9344,-2.9352,-2.9441,-2.941,-2.9409,-2.9397,-2.9401,-2.945,-2.945,-2.9417,-2.9414,-2.942,-2.9453,-2.9468,-2.9473,-2.9549,-2.9479,-2.9482,-2.9485,-2.9487,-2.9689,-2.9692,0,0,0,0,0,0,-2.9342,-2.935,-2.944,-2.9443,-2.937,-2.9402,-2.9406,-2.943,-2.9449,-2.9449,-2.9422,-2.9417,-2.9462,-2.9468,-2.9474,-2.9566,-2.9483,-2.9487,-2.9489,-2.9686,-2.969,-2.9693,0,0,0,0,0,0,-2.934,-2.9351,-2.9438,-2.9395,-2.9405,-2.9407,-2.9434,-2.9432,-2.9447,-2.9453,-2.9452,-2.9438,-2.9461,-2.9468,-2.9527,-2.9567,-2.9489,-2.9493,-2.9683,-2.9687,-2.9691,-2.9752,0,0,0,0,0,0,-2.9336,-2.935,-2.9381,-2.9396,-2.9408,-2.9491,-2.9436,-2.9435,-2.9455,-2.9449,-2.9467,-2.9468,-2.9459,-2.9521,-2.9531,-2.9571,-2.9496,-2.9679,-2.9685,-2.969,-2.9747,-2.9758,-2.9768,0,0,0,0,0,-2.9332,-2.9396,-2.9382,-2.9393,-2.9446,-2.9494,-2.95,-2.9489,-2.9458,-2.9488,-2.9492,-2.9467,-2.9562,-2.9528,-2.9539,-2.9581,-2.9676,-2.9683,-2.9689,-2.9742,-2.9756,-2.9768,0,0,0,0,0,0,-2.9384,-2.9398,-2.9383,-2.9454,-2.9473,-2.9486,-2.9523,-2.9505,-2.9533,-2.9526,-2.9512,-2.9516,-2.9578,-2.9586,-2.9548,-2.9657,-2.9614,-2.9623,-2.965,-2.9663,-2.9674,-2.967,-2.9499,0,0,0,0,0,-2.9404,-2.9442,-2.9452,-2.9514,-2.9524,-2.9522,-2.9543,-2.9533,-2.9552,-2.956,-2.9567,-2.9586,-2.962,-2.9642,-2.9674,-2.9748,-2.975,-2.9782,-2.9793,-2.9802,-2.9809,-2.9847,-2.9861,-2.9714,-2.9714,-2.9714,0,0,-2.9445,-2.9458,-2.9482,-2.9524,-2.9538,-2.9577,-2.9529,-2.9573,-2.9601,-2.9566,-2.9622,-2.9628,-2.9648,-2.9715,-2.9744,-2.9723,-2.9851,-2.981,-2.9817,-2.9819,-2.9855,-2.9869,-2.9882,-2.9718,-2.9717,-2.9717,0,0,-2.954,-2.9554,-2.9606,-2.9621,-2.9642,-2.9641,-2.9654,-2.9669,-2.9672,-2.9728,-2.9702,-2.9736,-2.9795,-2.9809,-2.9825,-2.9925,-2.9903,-2.9936,-2.9991,-3.0029,-3.004,-3.005,-3.0084,-3.0097,-2.9944,-2.9944,-2.9944,0,-2.9588,-2.9646,-2.9635,-2.968,-2.9699,-2.967,-2.9722,-2.9737,-2.9767,-2.978,-2.9756,-2.9829,-2.984,-2.9909,-2.9934,-2.9948,-2.9961,-2.9933,-3.004,-3.005,-3.0059,-3.0091,-3.0104,-2.9948,-2.9947,-2.9947,-2.9947,0,-2.9704,-2.9744,-2.9784,-2.9814,-2.9838,-2.9886,-2.9882,-2.9907,-2.9895,-2.9896,-2.9952,-2.9966,-2.9998,-3.0015,-3.0004,-3.0082,-3.0067,-3.0042,-2.9997,-3.0077,-3.0107,-3.0119,-2.9953,-2.9952,-2.9951,-2.995,0,0,-2.9831,-2.9855,-2.9869,-2.9882,-2.9904,-2.9935,-2.9982,-3.0015,-3.0036,-3.0058,-3.0096,-3.0147,-3.0123,-3.014,-3.0131,-3.0164,-3.0241,-3.0134,-3.0134,-3.0152,-3.0325,-3.0343,-3.0358,-3.0227,-3.0229,-3.0231,-3.0323,0,-2.9924,-3.0006,-2.9997,-3.0074,-3.0111,-3.0084,-3.0125,-3.0142,-3.0144,-3.0175,-3.0177,-3.0213,-3.018,-3.019,-3.0222,-3.0225,-3.0275,-3.0218,-3.026,-3.0262,-3.0254,-3.0374,-3.0393,-3.0479,-3.0335,-3.0337,-3.0338,0,-3.0044,-3.0071,-3.0152,-3.0167,-3.0182,-3.0219,-3.0248,-3.0278,-3.0297,-3.0296,-3.0316,-3.0301,-3.0347,-3.0303,-3.0365,-3.0327,-3.0344,-3.0348,-3.0351,-3.0353,-3.0303,-3.0376,-3.0506,-3.0518,-3.0357,-3.0355,-3.0354,0,-3.0126,-3.0183,-3.0238,-3.025,-3.027,-3.0296,-3.0306,-3.0322,-3.0342,-3.0368,-3.038,-3.0411,-3.0427,-3.045,-3.0443,-3.0412,-3.0506,-3.0462,-3.0505,-3.0505,-3.0525,-3.0523,-3.0656,-3.0539,-3.0539,-3.0539,-3.0539,0,-3.023,-3.028,-3.0275,-3.0309,-3.0364,-3.0354,-3.0408,-3.0414,-3.0429,-3.0463,-3.0442,-3.0474,-3.0464,-3.0495,-3.049,-3.0541,-3.0549,-3.0549,-3.0546,-3.0549,-3.0549,-3.0559,-3.0552,-3.0542,-3.0542,-3.0541,-3.054,0,-3.033,-3.0329,-3.0387,-3.0402,-3.0406,-3.0446,-3.0458,-3.0489,-3.049,-3.0533,-3.0543,-3.0544,-3.058,-3.0576,-3.0616,-3.0612,-3.0675,-3.0667,-3.0669,-3.0666,-3.0708,-3.0704,-3.0851,-3.0868,-3.0742,-3.0743,-3.0744,0,-3.0395,-3.0433,-3.0452,-3.0473,-3.0485,-3.052,-3.054,-3.0531,-3.0553,-3.0578,-3.0606,-3.064,-3.0666,-3.0724,-3.0728,-3.0758,-3.0749,-3.0799,-3.0753,-3.0755,-3.0747,-3.0744,-3.0747,-3.0807,-3.0808,-3.0809,-3.081,0,-3.0511,-3.0508,-3.0539,-3.0569,-3.0594,-3.0618,-3.0639,-3.0657,-3.0651,-3.0676,-3.0713,-3.0733,-3.0774,-3.0808,-3.0836,-3.0845,-3.0826,-3.0825,-3.0836,-3.0838,-3.0837,-3.0836,-3.0691,-3.0821,-3.082,-3.0819,-3.0818,-3.0818,-3.0594,-3.0626,-3.0644,-3.0678,-3.0693,-3.0713,-3.0743,-3.0748,-3.0779,-3.0811,-3.0805,-3.0845,-3.0863,-3.0899,-3.0911,-3.0942,-3.0923,-3.094,-3.0944,-3.0948,-3.0951,-3.0834,-3.0947,-3.0947,-3.0947,-3.0946,-3.0946,0,-3.0706,-3.0716,-3.0748,-3.0779,-3.0806,-3.0787,-3.081,-3.0833,-3.0869,-3.0887,-3.0914,-3.0955,-3.0987,-3.0994,-3.1025,-3.1048,-3.104,-3.1056,-3.1053,-3.1055,-3.0967,-3.0953,-3.1062,-3.1062,-3.1062,-3.1062,-3.1062,-3.1062,-3.0767,-3.082,-3.082,-3.0879,-3.0889,-3.0929,-3.0943,-3.0961,-3.0976,-3.1023,-3.105,-3.1054,-3.1067,-3.1099,-3.1127,-3.1128,-3.1139,-3.1158,-3.1156,-3.1073,-3.1061,-3.105,-3.1037,-3.1161,-3.1162,-3.1241,-3.1241,-3.1242]},{"header":{"parameterUnit":"m.s-1","parameterCategory":1,"la1":30.2991,"la2":30.254,"lo1":-89.0895,"lo2":-89.0444,"dy":0.0017,"dx":0.0017,"nx":28,"ny":28,"refTime":"2024-03-31T03:00:00:Z","depth":0,"parameterNumber":3,"parameterNumberName":"V-component_of_WINDS"},"data":[0,0,0,0,0,0,0,0,0,0,0,0,0,0,0,0,0,0,0,0,0,0,0,0,0,0,0,0,0,0,0,0,0,0,0,0,0,0,0,0,0,0,0,0,0,0,0,0,0,0,0,0,0,0,0,0,0,0,2.0253,2.0253,0,2.0318,2.0319,2.032,2.0344,2.0343,2.0343,2.0343,2.0409,2.0411,2.0413,0,0,0,0,0,0,0,0,0,0,0,0,0,2.015,2.0152,2.0253,2.0253,2.0254,2.0318,2.0319,2.032,2.0344,2.0343,2.0343,2.0343,2.0408,2.0411,2.0413,0,0,0,0,0,0,0,0,0,0,0,0,0,2.0203,2.0152,2.0252,2.0274,2.0276,2.0318,2.0319,2.032,2.0344,2.0343,2.0343,2.0343,2.0408,2.041,2.0413,2.0438,0,0,2.0422,2.0424,0,0,0,0,0,0,0,0,2.02,2.0207,2.027,2.0272,2.0275,2.0322,2.0307,2.036,2.0344,2.0318,2.0343,2.0342,2.038,2.0386,2.0399,2.0441,2.0444,2.0423,2.0424,2.0426,2.0427,0,0,0,0,0,0,0,2.0196,2.0204,2.0279,2.0271,2.0274,2.0281,2.0288,2.0317,2.035,2.032,2.0322,2.033,2.0382,2.0396,2.04,2.0445,2.0423,2.0425,2.0427,2.0428,2.0515,2.0516,0,0,0,0,0,0,2.0189,2.0201,2.0276,2.028,2.0236,2.0283,2.0291,2.0308,2.035,2.0356,2.033,2.0331,2.0391,2.0397,2.0403,2.0437,2.0426,2.0428,2.043,2.0515,2.0515,2.0516,0,0,0,0,0,0,2.0186,2.0195,2.0274,2.0241,2.0252,2.0285,2.0304,2.0309,2.0323,2.0357,2.0363,2.0338,2.0391,2.0399,2.043,2.0439,2.043,2.0432,2.0514,2.0515,2.0516,2.0504,0,0,0,0,0,0,2.0183,2.0194,2.0203,2.0241,2.0253,2.0299,2.0304,2.0311,2.0328,2.0329,2.0366,2.0372,2.0391,2.0426,2.0433,2.0443,2.0435,2.0513,2.0514,2.0515,2.0503,2.0504,2.0504,0,0,0,0,0,2.018,2.0196,2.0204,2.0213,2.0265,2.03,2.0307,2.0329,2.0329,2.0339,2.0361,2.0371,2.0437,2.0429,2.0437,2.0448,2.0513,2.0514,2.0515,2.0503,2.0504,2.0504,0,0,0,0,0,0,2.0157,2.0202,2.021,2.0239,2.0266,2.0304,2.0317,2.0328,2.0355,2.0355,2.0381,2.0389,2.0419,2.0437,2.0426,2.0476,2.0476,2.0479,2.0464,2.0465,2.0465,2.046,2.0437,0,0,0,0,0,2.0156,2.018,2.0218,2.024,2.0253,2.0283,2.0298,2.0313,2.0342,2.0353,2.0377,2.0405,2.0432,2.0449,2.0476,2.0506,2.0516,2.0519,2.0519,2.0519,2.0522,2.0542,2.0544,2.052,2.052,2.052,0,0,2.0153,2.018,2.0194,2.0236,2.0258,2.0284,2.0292,2.0317,2.0337,2.0356,2.0388,2.0408,2.044,2.0472,2.0487,2.0488,2.0531,2.0521,2.0521,2.0523,2.0544,2.0546,2.0548,2.0521,2.0521,2.052,0,0,2.0161,2.0183,2.0206,2.0229,2.0263,2.0283,2.0289,2.0326,2.034,2.0373,2.0389,2.0413,2.0458,2.0482,2.05,2.0521,2.0531,2.0529,2.0531,2.0551,2.0553,2.0555,2.0564,2.0567,2.0531,2.0531,2.0531,0,2.0153,2.0192,2.0216,2.0242,2.0261,2.0282,2.0306,2.0327,2.0368,2.0381,2.0381,2.0442,2.0464,2.0503,2.0509,2.0522,2.053,2.0524,2.0551,2.0553,2.0555,2.0564,2.0568,2.053,2.053,2.053,2.0531,0,2.0181,2.0208,2.0222,2.0263,2.0284,2.0309,2.0338,2.0356,2.037,2.0391,2.0426,2.0455,2.0489,2.0499,2.0512,2.0541,2.0541,2.0546,2.0546,2.0557,2.0566,2.057,2.053,2.053,2.053,2.053,0,0,2.0175,2.0231,2.0236,2.0256,2.0297,2.0319,2.0346,2.0381,2.0397,2.0425,2.045,2.049,2.0496,2.0516,2.0532,2.0549,2.0567,2.0552,2.0554,2.0556,2.0604,2.0601,2.0604,2.0575,2.0576,2.0576,2.0602,0,2.0189,2.0238,2.0262,2.0301,2.0328,2.035,2.0374,2.0402,2.0423,2.0449,2.0472,2.0501,2.0505,2.0518,2.0536,2.0561,2.0577,2.056,2.0599,2.06,2.0591,2.0609,2.0605,2.0627,2.0605,2.0606,2.0606,0,2.0211,2.0242,2.0284,2.0325,2.0337,2.0358,2.0394,2.0418,2.0452,2.0466,2.0491,2.0507,2.0538,2.0536,2.058,2.0568,2.0586,2.0601,2.0602,2.0607,2.0604,2.0615,2.0635,2.0638,2.0612,2.0611,2.0611,0,2.0205,2.0256,2.0288,2.0305,2.0353,2.0368,2.0389,2.0422,2.0443,2.0474,2.0488,2.0522,2.0541,2.0568,2.0594,2.059,2.0636,2.0636,2.065,2.065,2.0659,2.0658,2.0682,2.0669,2.0669,2.0668,2.0668,0,2.0218,2.0243,2.0286,2.0306,2.0336,2.0365,2.0394,2.0416,2.0447,2.0473,2.0493,2.0517,2.055,2.0579,2.0599,2.0634,2.0642,2.0655,2.0661,2.0654,2.0652,2.0666,2.0665,2.0669,2.0669,2.0669,2.0669,0,2.0215,2.0245,2.0282,2.0326,2.0338,2.0358,2.0396,2.0417,2.0441,2.0473,2.0483,2.0519,2.0554,2.0583,2.0628,2.0643,2.0679,2.0685,2.0668,2.0671,2.0684,2.0683,2.0719,2.0726,2.0706,2.0707,2.0707,0,2.0222,2.0242,2.0289,2.0309,2.033,2.036,2.0382,2.0412,2.0434,2.0477,2.0493,2.053,2.0561,2.0616,2.0647,2.0683,2.069,2.0701,2.0696,2.0689,2.0693,2.0691,2.0695,2.0701,2.0701,2.0701,2.0701,0,2.0232,2.0246,2.0277,2.0315,2.0341,2.0371,2.0402,2.0416,2.0453,2.0477,2.0514,2.0538,2.0586,2.0623,2.0663,2.0685,2.07,2.0703,2.0708,2.0702,2.0692,2.0699,2.067,2.0701,2.0701,2.0701,2.0701,2.0701,2.0235,2.0255,2.0293,2.0327,2.0355,2.0384,2.0407,2.0434,2.0466,2.0508,2.0524,2.0562,2.0599,2.0654,2.0677,2.0709,2.071,2.0717,2.072,2.0721,2.0721,2.0687,2.0716,2.0716,2.0716,2.0716,2.0716,0,2.0247,2.0273,2.0305,2.0349,2.0377,2.039,2.0426,2.0448,2.0482,2.0515,2.0547,2.0591,2.0628,2.0663,2.0702,2.072,2.0728,2.073,2.0729,2.0735,2.0717,2.0709,2.0723,2.0723,2.0723,2.0723,2.0723,2.0723,2.0257,2.0293,2.0312,2.0363,2.0389,2.0428,2.0448,2.0476,2.0503,2.0552,2.0583,2.0606,2.0641,2.0684,2.0719,2.0729,2.0743,2.0743,2.0754,2.0737,2.0735,2.0734,2.0727,2.0745,2.0745,2.077,2.077,2.077]}]]